Location: Unspecified
(51.5147°N, 7.4673°E)
Time: 03:49:31
(UTC+01:00)

Explorer 7 - Pass Details

Date: 22 February 2026
Orbit: 430 x 542 km, 50.2° (Epoch: 8 March)

Event Time Altitude Azimuth Distance (km) Brightness Sun altitude
Rises 19:01:58 0° 281° (W) 2,497 12.0 -10.7°
Reaches altitude 10° 19:04:16 10° 269° (W) 1,639 10.8 -11.0°
Maximum altitude 19:07:30 29° 208° (SSW) 912 8.3 -11.5°
Drops below altitude 10° 19:10:51 10° 147° (SSE) 1,694 9.0 -12.0°
Enters shadow 19:11:44 - 142° (SE) 2,015 9.3 -12.2°
Sets 19:13:16 0° 137° (SE) 2,598 - -12.4°
